Location: Staunton
(38.1490°N, 79.0720°W)
Time: 22:40:34
(UTC-04:00)

ISS - Pass Details

Date: 22 May 2018
Orbit: 402 x 407 km, 51.6° (Epoch: 26 May)

Event Time Altitude Azimuth Distance (km) Brightness Sun altitude
Rises 23:09:41 0° 281° (W) 2,314 0.6 -24.5°
Reaches altitude 10° 23:12:39 10° 311° (NW) 1,455 -0.1 -24.8°
Maximum altitude 23:14:16 13° 341° (NNW) 1,287 -0.4 -25.0°
Drops below altitude 10° 23:15:53 10° 10° (N) 1,457 -0.4 -25.2°
Sets 23:18:52 0° 40° (NE) 2,317 0.3 -25.5°
